[[{"header":{"parameterUnit":"m.s-1","parameterCategory":1,"la1":30.2991,"la2":30.254,"lo1":-89.0895,"lo2":-89.0444,"dy":0.0017,"dx":0.0017,"nx":28,"ny":28,"refTime":"2025-01-08T03:00:00:Z","depth":0,"parameterNumber":2,"parameterNumberName":"U-component_of_WINDS"},"data":[0,0,0,0,0,0,0,0,0,0,0,0,0,0,0,0,0,0,0,0,0,0,0,0,0,0,0,0,0,0,0,0,0,0,0,0,0,0,0,0,0,0,0,0,0,0,0,0,0,0,0,0,0,0,0,0,0,0,1.7805,1.7806,0,1.7832,1.7833,1.7833,1.7817,1.7816,1.7815,1.7814,1.7842,1.7843,1.7845,0,0,0,0,0,0,0,0,0,0,0,0,0,1.7741,1.7742,1.7805,1.7806,1.7806,1.7832,1.7833,1.7833,1.7817,1.7816,1.7815,1.7814,1.7842,1.7843,1.7845,0,0,0,0,0,0,0,0,0,0,0,0,0,1.7769,1.7743,1.7805,1.7801,1.7801,1.7832,1.7833,1.7833,1.7817,1.7816,1.7815,1.7814,1.7841,1.7843,1.7845,1.7882,0,0,1.7852,1.7853,0,0,0,0,0,0,0,0,1.7767,1.7771,1.7801,1.7801,1.7801,1.782,1.782,1.785,1.7817,1.7811,1.7814,1.7813,1.7836,1.7838,1.7846,1.7883,1.7885,1.7852,1.7853,1.7854,1.7855,0,0,0,0,0,0,0,1.7765,1.777,1.7816,1.7802,1.7802,1.7798,1.7801,1.7826,1.7829,1.7811,1.781,1.7814,1.7835,1.7844,1.7846,1.7885,1.7852,1.7854,1.7855,1.7856,1.7956,1.7957,0,0,0,0,0,0,1.7764,1.7768,1.7815,1.7817,1.7781,1.78,1.7803,1.7815,1.7829,1.783,1.7815,1.7813,1.7841,1.7844,1.7847,1.7892,1.7854,1.7856,1.7858,1.7955,1.7956,1.7958,0,0,0,0,0,0,1.7762,1.7768,1.7814,1.7792,1.7798,1.7803,1.7816,1.7816,1.7825,1.7832,1.7832,1.7822,1.784,1.7844,1.7874,1.7893,1.7857,1.7859,1.7953,1.7955,1.7957,1.7982,0,0,0,0,0,0,1.776,1.7767,1.7781,1.7793,1.7799,1.784,1.7817,1.7818,1.7828,1.7826,1.7839,1.784,1.7839,1.7871,1.7876,1.7895,1.7861,1.7951,1.7954,1.7956,1.798,1.7985,1.7989,0,0,0,0,0,1.7758,1.7787,1.7782,1.7787,1.7816,1.7841,1.7845,1.7843,1.783,1.7844,1.7849,1.784,1.789,1.7874,1.788,1.79,1.795,1.7953,1.7956,1.7977,1.7984,1.7989,0,0,0,0,0,0,1.7776,1.7788,1.7783,1.7816,1.7828,1.7838,1.7856,1.785,1.7865,1.7863,1.786,1.7863,1.7895,1.79,1.7882,1.7937,1.7918,1.7923,1.7932,1.7938,1.7943,1.7941,1.7863,0,0,0,0,0,1.7784,1.7803,1.7812,1.7841,1.7847,1.7851,1.7861,1.7859,1.7871,1.7876,1.7883,1.7896,1.7914,1.7927,1.7944,1.7981,1.7984,1.7998,1.8002,1.8006,1.801,1.8031,1.8038,1.7968,1.7968,1.7968,0,0,1.7801,1.7809,1.7821,1.7845,1.7854,1.7874,1.7855,1.7877,1.7892,1.788,1.7908,1.7914,1.7928,1.7962,1.7977,1.7967,1.803,1.801,1.8013,1.8015,1.8035,1.8042,1.8048,1.797,1.7969,1.7969,0,0,1.7841,1.7849,1.7874,1.7884,1.7898,1.7901,1.7907,1.7919,1.7923,1.7952,1.7943,1.7962,1.7994,1.8004,1.8014,1.8061,1.8053,1.8067,1.8091,1.8112,1.8118,1.8123,1.814,1.8146,1.807,1.8071,1.8071,0,1.7859,1.7889,1.7888,1.7911,1.7922,1.7913,1.7939,1.7948,1.7967,1.7976,1.7965,1.8006,1.8015,1.8051,1.8063,1.8071,1.8079,1.8065,1.8117,1.8122,1.8126,1.8143,1.815,1.8072,1.8072,1.8072,1.8072,0,1.7912,1.7933,1.7952,1.7971,1.7985,1.8009,1.8012,1.8025,1.8023,1.8027,1.8058,1.8068,1.8088,1.8097,1.8094,1.8134,1.8128,1.8117,1.8098,1.8135,1.815,1.8157,1.8074,1.8074,1.8073,1.8073,0,0,1.7963,1.7983,1.799,1.7999,1.8015,1.8032,1.8056,1.8077,1.8089,1.8103,1.8124,1.8153,1.8144,1.8155,1.8153,1.8172,1.821,1.8159,1.8159,1.8169,1.8255,1.8263,1.8271,1.8205,1.8206,1.8207,1.8254,0,1.8005,1.8048,1.8048,1.8088,1.8108,1.8101,1.8122,1.8135,1.814,1.8158,1.8164,1.8184,1.817,1.8177,1.8195,1.8201,1.8227,1.8198,1.8225,1.8226,1.8222,1.8279,1.8287,1.8331,1.826,1.8261,1.8262,0,1.8059,1.8075,1.8117,1.8132,1.8141,1.816,1.818,1.8197,1.8212,1.8214,1.8228,1.8224,1.8251,1.8231,1.8268,1.8248,1.8259,1.8264,1.8266,1.8269,1.8246,1.8283,1.8345,1.8351,1.8272,1.8271,1.827,0,1.8093,1.8126,1.8155,1.8164,1.8181,1.8195,1.8204,1.8217,1.823,1.8247,1.8256,1.8276,1.8287,1.8303,1.8305,1.8291,1.8343,1.8323,1.8346,1.8346,1.8357,1.8356,1.8421,1.8364,1.8364,1.8364,1.8364,0,1.8139,1.8165,1.8171,1.8189,1.8219,1.822,1.8249,1.8256,1.8269,1.8289,1.8284,1.8303,1.8305,1.8325,1.8328,1.8358,1.8363,1.8367,1.8367,1.8367,1.8367,1.8374,1.8371,1.8366,1.8365,1.8365,1.8365,0,1.8182,1.8186,1.8219,1.8233,1.8238,1.8259,1.8272,1.829,1.8295,1.8321,1.8327,1.8335,1.8359,1.8363,1.839,1.8392,1.8429,1.8426,1.8424,1.8424,1.8447,1.8445,1.8519,1.853,1.8465,1.8466,1.8467,0,1.8211,1.8231,1.8249,1.8262,1.8271,1.8292,1.8306,1.8308,1.8322,1.8342,1.8358,1.8381,1.8399,1.8438,1.8446,1.8468,1.8465,1.849,1.8469,1.8469,1.8467,1.8465,1.8468,1.8494,1.8495,1.8495,1.8496,0,1.8263,1.8265,1.8284,1.8305,1.8322,1.8338,1.8354,1.8365,1.8369,1.8386,1.841,1.8425,1.8454,1.8477,1.8499,1.8508,1.8503,1.8503,1.851,1.851,1.8508,1.851,1.8436,1.8501,1.85,1.85,1.85,1.85,1.83,1.8318,1.8334,1.8356,1.8368,1.8384,1.8402,1.841,1.843,1.8454,1.8454,1.8481,1.8497,1.8526,1.8537,1.8559,1.8551,1.856,1.8562,1.8565,1.8567,1.8505,1.8563,1.8562,1.8562,1.8562,1.8562,0,1.8352,1.8362,1.8383,1.8406,1.8424,1.8418,1.8436,1.8451,1.8475,1.849,1.8509,1.8538,1.8561,1.8573,1.8596,1.8611,1.861,1.8617,1.8616,1.8619,1.8573,1.8565,1.8618,1.8618,1.8618,1.8618,1.8618,1.8618,1.8382,1.8413,1.8417,1.8454,1.8464,1.8491,1.8501,1.8516,1.8528,1.8561,1.858,1.8588,1.8602,1.8626,1.8648,1.8651,1.866,1.8669,1.867,1.8627,1.8621,1.8616,1.8609,1.867,1.867,1.8714,1.8715,1.8715]},{"header":{"parameterUnit":"m.s-1","parameterCategory":1,"la1":30.2991,"la2":30.254,"lo1":-89.0895,"lo2":-89.0444,"dy":0.0017,"dx":0.0017,"nx":28,"ny":28,"refTime":"2025-01-08T03:00:00:Z","depth":0,"parameterNumber":3,"parameterNumberName":"V-component_of_WINDS"},"data":[0,0,0,0,0,0,0,0,0,0,0,0,0,0,0,0,0,0,0,0,0,0,0,0,0,0,0,0,0,0,0,0,0,0,0,0,0,0,0,0,0,0,0,0,0,0,0,0,0,0,0,0,0,0,0,0,0,0,-5.185,-5.1851,0,-5.1965,-5.1966,-5.1967,-5.1973,-5.1972,-5.197,-5.1969,-5.2081,-5.2085,-5.2089,0,0,0,0,0,0,0,0,0,0,0,0,0,-5.1632,-5.1636,-5.185,-5.1851,-5.1853,-5.1964,-5.1966,-5.1967,-5.1973,-5.1972,-5.197,-5.1969,-5.208,-5.2085,-5.209,0,0,0,0,0,0,0,0,0,0,0,0,0,-5.1735,-5.1637,-5.1849,-5.1869,-5.1872,-5.1964,-5.1966,-5.1968,-5.1974,-5.1972,-5.197,-5.1968,-5.2078,-5.2084,-5.2091,-5.2169,0,0,-5.211,-5.2113,0,0,0,0,0,0,0,0,-5.1729,-5.1743,-5.1865,-5.1868,-5.1871,-5.1953,-5.193,-5.2035,-5.1974,-5.1935,-5.1969,-5.1967,-5.204,-5.2049,-5.2075,-5.2174,-5.2179,-5.211,-5.2114,-5.2117,-5.2119,0,0,0,0,0,0,0,-5.1722,-5.1738,-5.1895,-5.1867,-5.1871,-5.1871,-5.1883,-5.195,-5.1997,-5.1938,-5.1939,-5.1953,-5.2041,-5.2069,-5.2077,-5.2181,-5.211,-5.2116,-5.212,-5.2122,-5.2352,-5.2354,0,0,0,0,0,0,-5.1711,-5.1732,-5.1891,-5.1898,-5.1794,-5.1877,-5.189,-5.1928,-5.1996,-5.2005,-5.1954,-5.1952,-5.2059,-5.207,-5.2081,-5.2179,-5.2117,-5.2123,-5.2126,-5.235,-5.2353,-5.2355,0,0,0,0,0,0,-5.1707,-5.1726,-5.1887,-5.1815,-5.1836,-5.1882,-5.1925,-5.1932,-5.1959,-5.2008,-5.2016,-5.1974,-5.2058,-5.2072,-5.2148,-5.2183,-5.2126,-5.2131,-5.2347,-5.2351,-5.2354,-5.2374,0,0,0,0,0,0,-5.17,-5.1724,-5.1755,-5.1816,-5.184,-5.1953,-5.1927,-5.1935,-5.1971,-5.197,-5.2029,-5.2037,-5.2057,-5.2139,-5.2154,-5.2191,-5.2136,-5.2344,-5.2349,-5.2353,-5.237,-5.2378,-5.2384,0,0,0,0,0,-5.1693,-5.1754,-5.1756,-5.1776,-5.188,-5.1955,-5.1968,-5.1992,-5.1974,-5.2005,-5.2037,-5.2035,-5.2177,-5.2146,-5.2164,-5.2203,-5.2342,-5.2348,-5.2353,-5.2367,-5.2376,-5.2384,0,0,0,0,0,0,-5.1693,-5.1763,-5.1766,-5.1849,-5.1896,-5.1956,-5.1995,-5.2,-5.2052,-5.2048,-5.2074,-5.2087,-5.2162,-5.219,-5.2155,-5.2283,-5.2257,-5.2266,-5.2262,-5.2271,-5.2278,-5.2269,-5.2142,0,0,0,0,0,-5.1704,-5.176,-5.1817,-5.1885,-5.1909,-5.1948,-5.1982,-5.1996,-5.2045,-5.2065,-5.2102,-5.2148,-5.2203,-5.2239,-5.2292,-5.2375,-5.2388,-5.241,-5.2417,-5.2422,-5.2429,-5.2476,-5.2487,-5.2372,-5.2372,-5.2372,0,0,-5.1725,-5.177,-5.1803,-5.1887,-5.1925,-5.1982,-5.1965,-5.2025,-5.2068,-5.2073,-5.2148,-5.2177,-5.223,-5.231,-5.2347,-5.2335,-5.2464,-5.2429,-5.2433,-5.2437,-5.2483,-5.2494,-5.2503,-5.2376,-5.2375,-5.2375,0,0,-5.1793,-5.1832,-5.1894,-5.1934,-5.1993,-5.2019,-5.2034,-5.2093,-5.2113,-5.2189,-5.2195,-5.2245,-5.2339,-5.2377,-5.2409,-5.2494,-5.2495,-5.251,-5.2546,-5.2591,-5.26,-5.2608,-5.2639,-5.265,-5.2518,-5.2518,-5.2518,0,-5.1811,-5.1899,-5.1925,-5.1987,-5.2024,-5.2034,-5.2097,-5.2133,-5.2205,-5.223,-5.2216,-5.2336,-5.2372,-5.2462,-5.2484,-5.2509,-5.2526,-5.2504,-5.2597,-5.2606,-5.2614,-5.2643,-5.2655,-5.2519,-5.2519,-5.2519,-5.2519,0,-5.1919,-5.1979,-5.2022,-5.2095,-5.2136,-5.2198,-5.2233,-5.2272,-5.2283,-5.2311,-5.2388,-5.2433,-5.2496,-5.2518,-5.2528,-5.261,-5.2601,-5.2592,-5.2566,-5.2626,-5.2654,-5.2666,-5.2522,-5.2521,-5.2521,-5.252,0,0,-5.1988,-5.2077,-5.2093,-5.2127,-5.2193,-5.224,-5.2303,-5.2367,-5.24,-5.245,-5.2502,-5.2583,-5.2576,-5.2612,-5.2627,-5.2667,-5.2733,-5.2653,-5.2655,-5.2667,-5.2826,-5.2833,-5.2845,-5.2734,-5.2736,-5.2738,-5.2822,0,-5.2064,-5.2178,-5.2204,-5.2301,-5.2358,-5.2369,-5.2424,-5.247,-5.2498,-5.2549,-5.2578,-5.2636,-5.2622,-5.2644,-5.2684,-5.2716,-5.2765,-5.2711,-5.2783,-5.2785,-5.2769,-5.286,-5.2867,-5.2944,-5.2833,-5.2835,-5.2836,0,-5.2167,-5.2223,-5.2326,-5.2387,-5.2412,-5.2461,-5.2522,-5.2572,-5.2625,-5.2642,-5.2684,-5.2695,-5.276,-5.2732,-5.2821,-5.2784,-5.2815,-5.2835,-5.2839,-5.2846,-5.2814,-5.287,-5.2969,-5.298,-5.2854,-5.2852,-5.2851,0,-5.2209,-5.2309,-5.2384,-5.2413,-5.2486,-5.252,-5.2552,-5.2603,-5.2641,-5.2694,-5.2719,-5.2778,-5.2811,-5.2856,-5.2883,-5.286,-5.2971,-5.2945,-5.2987,-5.2986,-5.3009,-5.3007,-5.3114,-5.3029,-5.3029,-5.3028,-5.3028,0,-5.2291,-5.2353,-5.2404,-5.245,-5.2521,-5.2551,-5.262,-5.2651,-5.2697,-5.2749,-5.2762,-5.281,-5.2843,-5.2896,-5.2917,-5.2988,-5.3003,-5.3018,-5.3023,-5.3017,-5.3015,-5.3038,-5.3033,-5.3031,-5.3031,-5.303,-5.303,0,-5.2349,-5.2385,-5.2468,-5.2532,-5.2549,-5.2599,-5.2653,-5.2698,-5.2726,-5.2792,-5.2809,-5.2854,-5.2916,-5.2949,-5.3026,-5.304,-5.3121,-5.3122,-5.3104,-5.3106,-5.3146,-5.3142,-5.3271,-5.329,-5.3192,-5.3193,-5.3193,0,-5.2398,-5.2447,-5.2517,-5.2554,-5.2588,-5.2646,-5.2686,-5.2717,-5.2757,-5.2823,-5.286,-5.2924,-5.2977,-5.3076,-5.3114,-5.3174,-5.3177,-5.3219,-5.3186,-5.3179,-5.3179,-5.3175,-5.3181,-5.3224,-5.3225,-5.3226,-5.3226,0,-5.2483,-5.2499,-5.2556,-5.2621,-5.2668,-5.2719,-5.277,-5.2799,-5.2838,-5.2883,-5.2948,-5.299,-5.3071,-5.3134,-5.3197,-5.3228,-5.3234,-5.3236,-5.3249,-5.3244,-5.3231,-5.3239,-5.312,-5.3233,-5.3232,-5.3232,-5.3231,-5.3231,-5.2539,-5.2584,-5.2641,-5.2704,-5.2746,-5.2794,-5.284,-5.2876,-5.2932,-5.3002,-5.3016,-5.3086,-5.3139,-5.3225,-5.3258,-5.3312,-5.3303,-5.3322,-5.3327,-5.3331,-5.3333,-5.3223,-5.3324,-5.3324,-5.3323,-5.3323,-5.3323,0,-5.2625,-5.2663,-5.2721,-5.2793,-5.2843,-5.2847,-5.2903,-5.2945,-5.3007,-5.3056,-5.3109,-5.3185,-5.3247,-5.3292,-5.3355,-5.339,-5.3394,-5.3405,-5.3403,-5.341,-5.3337,-5.332,-5.3401,-5.3401,-5.3401,-5.3401,-5.3401,-5.3401,-5.2675,-5.2752,-5.2775,-5.2873,-5.291,-5.298,-5.3013,-5.3056,-5.3097,-5.3182,-5.3235,-5.3264,-5.3312,-5.3379,-5.3436,-5.3447,-5.347,-5.3481,-5.3492,-5.3423,-5.3415,-5.3407,-5.3391,-5.3486,-5.3486,-5.3561,-5.3562,-5.3562]}]]